EW4443 Weather Reports


time (UTC)temp
C
wind
direction
speed
KPH
gust
KPH
rain 1hr
cm
rain 24hr
cm
rain mn
cm
humidity
%
barometer
mb
20260831125450 26 248 1.6 8.0 0.00 0.46 0.00 65 1012.1
20260831125221 26 203 1.6 6.4 0.00 0.46 0.00 65 1011.8
20260831124450 26 158 1.6 11.3 0.00 0.46 0.00 65 1012.1
20260831123949 26 180 3.2 11.3 0.00 0.46 0.00 66 1012.1
20260831123449 26 203 1.6 8.0 0.00 0.46 0.00 68 1011.8
20260831123218 26 225 1.6 6.4 0.00 0.46 0.00 66 1011.8
20260831122448 26 158 1.6 6.4 0.00 0.46 0.00 66 1011.8
20260831121948 26 180 0.0 6.4 0.00 0.46 0.00 65 1011.8
20260831121719 26 158 1.6 6.4 0.00 0.46 0.00 65 1011.8
20260831120949 26 158 1.6 8.0 0.00 0.46 0.00 65 1011.5
20260831120449 26 180 1.6 8.0 0.00 0.46 0.00 65 1011.5
20260831115949 26 158 0.0 6.4 0.00 0.46 0.00 66 1011.5
20260831115449 26 225 1.6 8.0 0.00 0.46 0.00 66 1011.1
20260831115220 26 225 1.6 8.0 0.00 0.46 0.00 66 1011.1
20260831114448 26 158 1.6 8.0 0.00 0.46 0.00 66 1011.5
20260831113948 26 158 1.6 3.2 0.00 0.46 0.00 65 1011.1
20260831113448 26 158 0.0 3.2 0.00 0.46 0.00 65 1011.1
20260831112948 26 180 0.0 0.0 0.00 0.46 0.00 65 1010.8
20260831112449 26 23 0.0 0.0 0.00 0.46 0.00 65 1010.8
20260831111949 26 158 0.0 1.6 0.00 0.46 0.00 65 1010.5
20260831111450 26 45 0.0 1.6 0.00 0.46 0.00 65 1010.5
20260831110949 26 248 0.0 3.2 0.00 0.46 0.00 63 1010.8
20260831110449 26 23 0.0 8.0 0.00 0.46 0.00 65 1010.8
20260831110219 26 315 1.6 8.0 0.00 0.46 0.00 65 1010.8
20260831105447 26 0 0.0 8.0 0.00 0.46 0.00 65 1010.8
20260831104948 26 113 0.0 0.0 0.00 0.46 0.00 65 1010.5
20260831104718 26 180 0.0 0.0 0.00 0.46 0.00 65 1010.5
20260831103953 26 23 0.0 0.0 0.00 0.46 0.00 65 1010.0
20260831103949 26 338 0.0 0.0 0.00 0.46 0.00 65 1010.5
20260831103221 26 45 0.0 0.0 0.00 0.46 0.00 66 1009.7
20260831102449 26 45 0.0 3.2 0.00 0.46 0.00 65 1009.7
20260831101719 26 23 0.0 3.2 0.00 0.46 0.00 65 1009.3
20260831100947 26 45 0.0 3.2 0.00 0.46 0.00 66 1009.3
20260831100452 26 90 0.0 1.6 0.00 0.46 0.00 65 1009.7
20260831100448 26 23 0.0 1.6 0.00 0.46 0.00 65 1009.7
20260831095448 26 68 0.0 1.6 0.00 0.46 0.00 66 1010.0
20260831095219 26 45 0.0 4.8 0.00 0.46 0.00 66 1009.3
20260831094449 26 45 0.0 4.8 0.00 0.46 0.00 66 1010.0
20260831093949 26 248 0.0 6.4 0.00 0.46 0.00 66 1010.0
20260831093448 26 90 0.0 6.4 0.00 0.46 0.00 66 1010.0
20260831092949 26 68 0.0 9.7 0.00 0.46 0.00 68 1010.0
20260831092447 26 23 1.6 9.7 0.00 0.46 0.00 68 1010.0
20260831091947 26 90 1.6 8.0 0.00 0.46 0.00 68 1010.0
20260831091447 26 90 1.6 8.0 0.00 0.46 0.00 68 1010.5
20260831090948 26 23 1.6 9.7 0.00 0.46 0.00 66 1010.5
20260831090448 26 0 3.2 11.3 0.00 0.46 0.00 66 1010.5
20260831090220 26 68 3.2 17.7 0.00 0.46 0.00 66 1010.5
20260831085450 26 45 3.2 19.3 0.00 0.46 0.00 66 1010.5
20260831084949 26 0 3.2 19.3 0.00 0.46 0.00 68 1010.5
20260831084720 26 45 3.2 16.1 0.00 0.46 0.00 68 1010.5
20260831083947 26 113 1.6 12.9 0.00 0.46 0.00 69 1010.5
20260831083447 26 23 3.2 12.9 0.00 0.46 0.00 68 1010.5
20260831082947 26 45 3.2 14.5 0.00 0.46 0.00 68 1010.5
20260831082448 26 23 3.2 22.5 0.00 0.46 0.00 68 1010.8
20260831081948 26 23 4.8 22.5 0.00 0.46 0.00 68 1010.8
20260831081453 26 23 1.6 8.0 0.00 0.46 0.00 69 1010.8
20260831081448 26 68 1.6 9.7 0.00 0.46 0.00 69 1010.8
20260831080720 26 45 1.6 9.7 0.00 0.46 0.00 70 1010.8
20260831075948 26 113 1.6 11.3 0.00 0.46 0.00 70 1011.1
20260831075446 26 23 3.2 11.3 0.00 0.46 0.00 70 1010.8
20260831074947 26 45 3.2 12.9 0.00 0.46 0.00 70 1011.1
20260831074447 26 68 3.2 12.9 0.00 0.46 0.00 70 1011.1
20260831073946 26 23 1.6 9.7 0.00 0.46 0.00 70 1011.1
20260831073448 26 23 1.6 9.7 0.00 0.46 0.00 70 1010.8
20260831072948 26 0 1.6 9.7 0.00 0.46 0.00 70 1010.5
20260831072448 26 23 1.6 8.0 0.00 0.46 0.00 70 1010.8
20260831071948 26 315 1.6 19.3 0.00 0.46 0.00 70 1010.5
20260831071718 26 0 3.2 19.3 0.00 0.46 0.00 70 1010.0
20260831070946 26 45 3.2 19.3 0.00 0.46 0.00 70 1010.0
20260831070445 26 338 3.2 19.3 0.00 0.46 0.00 71 1010.5
20260831070217 26 293 3.2 14.5 0.00 0.46 0.46 70 1010.5
20260831065446 26 0 3.2 19.3 0.00 0.46 0.46 71 1010.5
20260831064947 26 45 3.2 19.3 0.00 0.46 0.46 71 1010.5
20260831064447 26 23 3.2 14.5 0.00 0.46 0.46 71 1010.5
20260831063947 26 0 3.2 14.5 0.00 0.46 0.46 71 1010.0
20260831063446 26 45 3.2 14.5 0.00 0.46 0.46 70 1010.0
20260831062945 26 0 3.2 14.5 0.00 0.46 0.46 70 1010.0
20260831062445 26 23 3.2 14.5 0.00 0.46 0.46 70 1010.0
20260831061945 26 23 3.2 11.3 0.00 0.46 0.46 70 1009.7
20260831061715 26 338 3.2 17.7 0.00 0.46 0.46 70 1009.7
20260831060944 26 23 3.2 17.7 0.03 0.46 0.46 70 1009.7
20260831060446 26 23 1.6 6.4 0.03 0.46 0.46 71 1009.7
20260831055945 26 23 1.6 8.0 0.03 0.46 0.46 71 1009.0
20260831055716 26 270 1.6 8.0 0.03 0.46 0.46 70 1009.0
20260831054945 26 225 1.6 9.7 0.03 0.46 0.46 71 1009.0
20260831054446 26 225 1.6 11.3 0.03 0.46 0.46 70 1008.7
20260831053945 26 225 3.2 11.3 0.03 0.46 0.46 70 1009.0
20260831053445 26 248 1.6 11.3 0.03 0.46 0.46 70 1009.0
20260831052944 26 180 3.2 16.1 0.03 0.46 0.46 70 1009.0
20260831052444 26 203 3.2 16.1 0.03 0.46 0.46 68 1009.0
20260831051946 26 203 1.6 9.7 0.03 0.46 0.46 70 1009.0
20260831051446 27 158 1.6 11.3 0.05 0.46 0.46 69 1009.0
20260831051217 27 270 3.2 16.1 0.10 0.43 0.43 65 1009.3
20260831050446 26 225 3.2 19.3 0.36 0.43 0.43 65 1008.7
20260831045945 26 113 3.2 19.3 0.43 0.43 0.43 70 1009.3
20260831045444 26 203 4.8 25.7 0.43 0.43 0.43 71 1009.7
20260831044944 26 225 4.8 25.7 0.43 0.43 0.43 75 1009.3
20260831044443 26 180 4.8 19.3 0.43 0.43 0.43 76 1009.7
20260831043943 26 135 4.8 22.5 0.43 0.43 0.43 76 1009.7
20260831043445 26 158 4.8 24.1 0.43 0.43 0.43 78 1009.3
20260831042944 26 180 4.8 24.1 0.43 0.43 0.43 78 1009.0
20260831042715 26 248 4.8 24.1 0.43 0.43 0.43 78 1009.3
20260831042216 26 68 4.8 19.3 0.43 0.43 0.43 78 1008.7
20260831041443 27 203 3.2 24.1 0.41 0.41 0.41 75 1008.7
20260831040942 30 203 6.4 24.1 0.33 0.33 0.36 69 1009.0
20260831040442 32 180 4.8 25.7 0.08 0.08 0.10 59 1009.0
20260831035944 33 203 6.4 29.0 0.00 0.00 0.00 44 1009.0
20260831035442 33 180 6.4 29.0 0.00 0.00 0.00 41 1008.7
20260831034944 34 0 4.8 19.3 0.00 0.00 0.00 40 1009.0
20260831034443 35 203 4.8 24.1 0.00 0.00 0.00 39 1008.7
20260831033943 35 203 6.4 24.1 0.00 0.00 0.00 37 1008.3
20260831033443 36 203 6.4 25.7 0.00 0.00 0.00 37 1008.3
20260831032942 37 270 1.6 25.7 0.00 0.00 0.00 34 1007.6
20260831032443 37 270 0.0 3.2 0.00 0.00 0.00 34 1007.6
20260831031942 37 180 0.0 1.6 0.00 0.00 0.00 34 1007.3
20260831031441 37 270 0.0 3.2 0.00 0.00 0.00 35 1007.6
20260831030942 37 315 0.0 6.4 0.00 0.00 0.00 34 1007.3
20260831030715 37 338 0.0 6.4 0.00 0.00 0.00 34 1006.9
20260831030215 37 270 0.0 4.8 0.00 0.00 0.00 34 1006.9
20260831025444 37 270 0.0 4.8 0.00 0.00 0.00 34 1006.9
20260831024943 37 338 0.0 4.8 0.00 0.00 0.00 34 1006.5
20260831024444 37 315 0.0 6.4 0.00 0.00 0.00 32 1006.5
20260831023943 37 45 0.0 6.4 0.00 0.00 0.00 32 1006.5
20260831023442 37 293 0.0 4.8 0.00 0.00 0.00 34 1006.5
20260831022942 37 270 0.0 4.8 0.00 0.00 0.00 32 1006.5
20260831022713 37 293 0.0 4.8 0.00 0.00 0.00 32 1006.5
20260831021943 37 338 0.0 6.4 0.00 0.00 0.00 32 1006.5
20260831021444 38 90 0.0 6.4 0.00 0.00 0.00 32 1006.5
20260831020944 38 0 1.6 6.4 0.00 0.00 0.00 32 1006.2
20260831015943 38 113 0.0 4.8 0.00 0.00 0.00 31 1005.9
20260831015442 38 270 0.0 4.8 0.00 0.00 0.00 30 1005.9
20260831014943 38 293 0.0 6.4 0.00 0.00 0.00 30 1005.9
20260831014712 38 203 0.0 6.4 0.00 0.00 0.00 30 1005.9
20260831013941 38 203 0.0 8.0 0.00 0.00 0.00 30 1005.9
20260831013443 38 270 1.6 8.0 0.00 0.00 0.00 30 1005.5
20260831012943 39 45 0.0 4.8 0.00 0.00 0.00 30 1005.5
20260831012443 39 45 0.0 4.8 0.00 0.00 0.00 30 1005.5
20260831011943 39 68 0.0 4.8 0.00 0.00 0.00 30 1005.5
20260831011443 39 293 0.0 8.0 0.00 0.00 0.00 30 1005.5
20260831010942 40 45 1.6 8.0 0.00 0.00 0.00 30 1005.5
20260831010442 40 0 0.0 4.8 0.00 0.00 0.00 30 1005.9
20260831005942 40 23 0.0 11.3 0.00 0.00 0.00 30 1005.5
20260831005441 40 315 1.6 11.3 0.00 0.00 0.00 29 1005.5
20260831004942 40 158 0.0 4.8 0.00 0.00 0.00 29 1005.9
20260831004443 40 293 0.0 6.4 0.00 0.00 0.00 29 1005.9
20260831003943 40 135 0.0 6.4 0.00 0.00 0.00 29 1005.9
20260831003443 40 203 0.0 6.4 0.00 0.00 0.00 29 1005.9
20260831002943 40 203 1.6 11.3 0.00 0.00 0.00 29 1005.9
20260831002441 41 270 1.6 11.3 0.00 0.00 0.00 29 1005.5
20260831001942 41 203 0.0 6.4 0.00 0.00 0.00 29 1005.9
20260831001442 41 270 1.6 6.4 0.00 0.00 0.00 27 1005.9
20260831000941 41 225 0.0 6.4 0.00 0.00 0.00 29 1005.9
20260831000712 41 315 1.6 6.4 0.00 0.00 0.00 29 1005.9
20260830235943 41 45 0.0 6.4 0.00 0.00 0.00 29 1005.9
20260830235714 41 338 0.0 9.7 0.00 0.00 0.00 29 1005.9
20260830235214 41 180 1.6 9.7 0.00 0.00 0.00 27 1006.2
20260830234713 41 338 1.6 8.0 0.00 0.00 0.00 27 1005.9
20260830233942 41 203 0.0 6.4 0.00 0.00 0.00 27 1006.2
20260830233442 41 270 0.0 6.4 0.00 0.00 0.00 27 1006.2
20260830232941 41 180 1.6 9.7 0.00 0.00 0.00 27 1006.2
20260830232442 41 225 1.6 9.7 0.00 0.00 0.00 27 1006.2
20260830231941 41 180 1.6 9.7 0.00 0.00 0.00 27 1006.2
20260830231442 41 68 1.6 8.0 0.00 0.00 0.00 29 1006.5
20260830231213 41 68 1.6 8.0 0.00 0.00 0.00 27 1006.5
20260830230443 41 68 1.6 6.4 0.00 0.00 0.00 27 1006.5
20260830225942 41 270 0.0 8.0 0.00 0.00 0.00 27 1006.5
20260830225443 41 135 1.6 11.3 0.00 0.00 0.00 27 1006.9
20260830224941 41 338 1.6 11.3 0.00 0.00 0.00 27 1006.9
20260830224442 41 270 1.6 8.0 0.00 0.00 0.00 29 1006.9
20260830224212 41 90 0.0 4.8 0.00 0.00 0.00 27 1006.9
20260830223441 41 158 0.0 4.8 0.00 0.00 0.00 29 1006.9
20260830222942 41 315 0.0 6.4 0.00 0.00 0.00 27 1007.3
20260830222441 41 270 1.6 8.0 0.00 0.00 0.00 27 1007.6
20260830221942 41 23 1.6 8.0 0.00 0.00 0.00 29 1007.3
20260830221442 41 23 1.6 8.0 0.00 0.00 0.00 29 1007.3
20260830220941 41 45 0.0 8.0 0.00 0.00 0.00 29 1007.6
20260830220440 41 338 0.0 8.0 0.00 0.00 0.00 29 1007.6
20260830215941 41 0 0.0 6.4 0.00 0.00 0.00 30 1007.6
20260830215711 41 315 1.6 6.4 0.00 0.00 0.00 29 1008.0
20260830214940 41 0 1.6 9.7 0.00 0.00 0.00 30 1008.0
20260830214441 41 270 1.6 9.7 0.00 0.00 0.00 27 1008.0
20260830213941 41 225 1.6 8.0 0.00 0.00 0.00 27 1008.3
20260830213442 41 338 1.6 8.0 0.00 0.00 0.00 29 1008.3
20260830212941 40 270 1.6 6.4 0.00 0.00 0.00 30 1008.7
20260830212441 40 248 0.0 6.4 0.00 0.00 0.00 27 1008.7
20260830211940 40 270 0.0 6.4 0.00 0.00 0.00 30 1009.0
20260830211440 40 315 0.0 8.0 0.00 0.00 0.00 30 1009.0
20260830210941 40 45 1.6 9.7 0.00 0.00 0.00 30 1009.0
20260830210710 40 293 1.6 6.4 0.00 0.00 0.00 29 1009.3
20260830205941 40 248 1.6 8.0 0.00 0.00 0.00 30 1009.0
20260830205441 40 270 1.6 8.0 0.00 0.00 0.00 29 1009.3
20260830204941 40 158 1.6 11.3 0.00 0.00 0.00 29 1009.3
20260830204443 40 225 3.2 11.3 0.00 0.00 0.00 30 1009.3
20260830203941 39 248 1.6 11.3 0.00 0.00 0.00 30 1009.7
20260830203441 39 248 1.6 11.3 0.00 0.00 0.00 30 1009.7
20260830202940 39 180 1.6 6.4 0.00 0.00 0.00 30 1009.7
20260830202439 39 180 0.0 4.8 0.00 0.00 0.00 30 1010.0
20260830201939 39 270 0.0 9.7 0.00 0.00 0.00 31 1010.0
20260830201440 39 338 1.6 11.3 0.00 0.00 0.00 30 1010.0
20260830200941 39 203 1.6 9.7 0.00 0.00 0.00 30 1010.5
20260830200440 39 338 1.6 9.7 0.00 0.00 0.00 30 1010.0
20260830195940 39 113 0.0 11.3 0.00 0.00 0.00 30 1010.5
20260830195440 38 180 0.0 11.3 0.00 0.00 0.00 30 1010.5
20260830194943 38 113 0.0 6.4 0.00 0.00 0.00 32 1010.8
20260830194441 38 45 0.0 11.3 0.00 0.00 0.00 31 1010.5
20260830193939 38 0 1.6 11.3 0.00 0.00 0.00 31 1010.5
20260830193439 38 135 1.6 12.9 0.00 0.00 0.00 31 1010.8
20260830192940 38 203 1.6 19.3 0.00 0.00 0.00 31 1010.8
20260830192440 38 180 3.2 19.3 0.00 0.00 0.00 31 1010.8
20260830191940 38 68 1.6 9.7 0.00 0.00 0.00 32 1011.1
20260830191440 38 180 0.0 9.7 0.00 0.00 0.00 34 1010.8
20260830190940 37 180 1.6 9.7 0.00 0.00 0.00 32 1011.1
20260830190439 37 0 1.6 14.5 0.00 0.00 0.00 32 1011.1
20260830185934 37 248 3.2 14.5 0.00 0.00 0.00 34 1011.1
20260830185421 37 135 1.6 12.9 0.00 0.00 0.00 34 1011.5
20260830184920 37 158 3.2 14.5 0.00 0.00 0.00 32 1011.5
20260830184421 37 23 3.2 14.5 0.00 0.00 0.00 32 1011.8
20260830183921 37 90 1.6 14.5 0.00 0.00 0.00 34 1011.8
20260830183421 37 180 3.2 14.5 0.00 0.00 0.00 32 1011.8
20260830182921 38 225 1.6 8.0 0.00 0.00 0.00 34 1011.8
20260830182421 37 225 1.6 14.5 0.00 0.00 0.00 35 1011.8
20260830181920 37 203 3.2 14.5 0.00 0.00 0.00 34 1011.8
20260830181420 38 225 1.6 14.5 0.00 0.00 0.00 35 1011.8
20260830180919 38 113 3.2 14.5 0.00 0.00 0.00 34 1012.1
20260830180421 37 225 3.2 14.5 0.00 0.00 0.00 34 1012.5
20260830175920 37 135 1.6 11.3 0.00 0.00 0.00 34 1012.5
20260830175421 37 203 1.6 11.3 0.00 0.00 0.00 34 1012.5
20260830174920 38 90 1.6 11.3 0.00 0.00 0.00 32 1012.5
20260830174420 38 180 1.6 9.7 0.00 0.00 0.00 34 1012.5
20260830173920 37 158 1.6 11.3 0.00 0.00 0.00 34 1012.5
20260830173419 37 158 1.6 11.3 0.00 0.00 0.00 34 1012.8
20260830172918 37 180 1.6 11.3 0.00 0.00 0.00 35 1012.5
20260830172419 37 158 3.2 11.3 0.00 0.00 0.00 35 1012.8
20260830172151 37 180 1.6 12.9 0.00 0.00 0.00 35 1012.5
20260830171420 37 158 3.2 12.9 0.00 0.00 0.00 35 1012.8
20260830170920 37 113 3.2 14.5 0.00 0.00 0.00 34 1012.5
20260830170420 37 180 3.2 14.5 0.00 0.00 0.00 35 1012.5
20260830170151 36 180 3.2 14.5 0.00 0.00 0.00 35 1012.8
20260830165420 36 180 3.2 14.5 0.00 0.00 0.00 35 1012.5
20260830164918 36 180 3.2 12.9 0.00 0.00 0.00 35 1012.5
20260830164649 36 135 3.2 12.9 0.00 0.00 0.00 35 1012.5
20260830163918 36 203 3.2 16.1 0.00 0.00 0.00 35 1012.5
20260830163649 36 180 3.2 16.1 0.00 0.00 0.00 35 1012.5
20260830162919 36 203 3.2 12.9 0.00 0.00 0.00 37 1012.5
20260830162419 36 180 1.6 11.3 0.00 0.00 0.00 37 1012.5
20260830162150 35 113 1.6 8.0 0.00 0.00 0.00 37 1012.8
20260830161423 35 225 0.0 4.8 0.00 0.00 0.00 39 1012.5
20260830161419 35 90 1.6 6.4 0.00 0.00 0.00 37 1012.8
20260830160418 35 113 0.0 3.2 0.00 0.00 0.00 40 1012.8
20260830155919 34 180 0.0 4.8 0.00 0.00 0.00 40 1012.5
20260830155649 34 338 0.0 6.4 0.00 0.00 0.00 40 1012.1
20260830155636 33 248 0.0 6.4 0.00 0.00 0.00 40 1012.5
20260830154418 33 180 1.6 8.0 0.00 0.00 0.00 40 1012.5
20260830153919 33 113 1.6 8.0 0.00 0.00 0.00 41 1012.5
20260830153650 33 203 0.0 6.4 0.00 0.00 0.00 41 1012.1
20260830152919 33 315 0.0 6.4 0.00 0.00 0.00 43 1012.1
20260830152420 32 158 0.0 4.8 0.00 0.00 0.00 43 1012.1
20260830151919 32 203 0.0 8.0 0.00 0.00 0.00 41 1012.1
20260830151418 32 203 1.6 8.0 0.00 0.00 0.00 43 1012.5
20260830150918 32 90 0.0 6.4 0.00 0.00 0.00 44 1012.5
20260830150416 32 315 0.0 6.4 0.00 0.00 0.00 44 1012.5
20260830145859 32 90 1.6 9.7 0.00 0.00 0.00 44 1012.5
20260830145632 31 158 0.0 9.7 0.00 0.00 0.00 45 1012.5
20260830144901 31 90 0.0 8.0 0.00 0.00 0.00 45 1012.5
20260830144400 31 270 0.0 6.4 0.00 0.00 0.00 45 1012.5
20260830143901 31 0 0.0 4.8 0.00 0.00 0.00 46 1012.5
20260830143401 30 248 0.0 6.4 0.00 0.00 0.00 48 1012.5
20260830143130 30 113 0.0 6.4 0.00 0.00 0.00 46 1012.5
20260830142630 30 338 0.0 6.4 0.00 0.00 0.00 48 1012.5
20260830141900 30 203 0.0 4.8 0.00 0.00 0.00 49 1012.5
20260830141630 30 180 0.0 4.8 0.00 0.00 0.00 49 1012.5
20260830140902 30 158 0.0 4.8 0.00 0.00 0.00 49 1012.1
20260830140401 30 180 0.0 6.4 0.00 0.00 0.00 49 1012.5
20260830135900 30 45 0.0 6.4 0.00 0.00 0.00 50 1012.1
20260830135400 30 45 0.0 8.0 0.00 0.00 0.00 50 1012.1
20260830134900 30 113 1.6 9.7 0.00 0.00 0.00 50 1012.1
20260830134359 30 68 1.6 9.7 0.00 0.00 0.00 50 1012.1
20260830134129 30 68 0.0 1.6 0.00 0.00 0.00 49 1012.1
20260830133400 30 45 0.0 1.6 0.00 0.00 0.00 48 1012.1
20260830132900 30 45 0.0 4.8 0.00 0.00 0.00 49 1012.1
20260830132401 30 338 0.0 4.8 0.00 0.00 0.00 48 1012.1
20260830131900 30 248 0.0 3.2 0.00 0.00 0.00 46 1011.8
20260830131400 30 338 0.0 3.2 0.00 0.00 0.00 46 1011.8
20260830130901 30 0 0.0 4.8 0.00 0.00 0.00 46 1011.5
20260830130400 30 180 0.0 8.0 0.00 0.00 0.00 45 1011.5